Date String (YYYY-MM-DD hh:mm:ss) UTC,Instrument flags,Ambient pressure (hPa),Sample flow (lpm),Bypass flow (lpm),Sample temperature (°C),Ambient temperature (°C),ASC tube jacket temperature (°C),LED temperature (°C),Box temperature (°C),Sample RH (%),Span deviation,Mass concentration (μg/m³),Mass concentration (μg/m³),Mass concentration (μg/m³)
DateTimeUTC,F1_M11,P_M11,Q1_M11,Q2_M11,T1_M11,T2_M11,T3_M11,T4_M11,T5_M11,U1_M11,ZSPAN_M11,X0_M11,X2_M11,X1_M11
2021-12-04 14:00:00,,0827.4,5.00,0.00,22.6,21.9,00.0,31.6,24.3,17.5,0000.0,0011.08,0003.71,0002.53
2021-12-04 14:01:00,,0827.4,5.00,0.00,22.6,21.9,00.0,31.6,24.4,17.6,0000.0,0011.51,0003.79,0002.61
2021-12-04 14:02:00,,0827.4,5.01,0.00,22.6,21.9,00.0,31.6,24.4,17.4,0000.0,0011.34,0003.83,0002.65
2021-12-04 14:03:00,,0827.4,4.99,0.00,22.6,21.9,00.0,31.6,24.3,17.3,0000.0,0011.87,0003.87,0002.68
2021-12-04 14:04:00,,0827.4,5.01,0.00,22.6,21.9,00.0,31.6,24.3,17.4,0000.0,0012.03,0003.89,0002.73
2021-12-04 14:05:00,,0827.4,4.99,0.00,22.6,21.9,00.0,31.6,24.3,17.3,0000.0,0013.00,0003.96,0002.79
2021-12-04 14:06:00,,0827.4,5.00,0.00,22.6,21.9,00.0,31.6,24.3,16.9,0000.0,0014.60,0003.97,0002.82
2021-12-04 14:07:00,,0827.4,5.00,0.00,22.6,21.8,00.0,31.6,24.3,16.8,0000.0,0015.93,0004.00,0002.84
2021-12-04 14:08:00,,0827.4,5.00,0.00,22.6,21.8,00.0,31.6,24.3,16.8,0000.0,0016.77,0003.97,0002.85
2021-12-04 14:09:00,,0827.4,5.01,0.00,22.6,21.8,00.0,31.6,24.2,16.6,0000.0,0016.60,0003.89,0002.81
2021-12-04 14:10:00,,0827.4,4.99,0.00,22.6,21.8,00.0,31.6,24.3,16.4,0000.0,0016.42,0003.82,0002.75
2021-12-04 14:11:00,,0827.4,5.00,0.00,22.6,21.8,00.0,31.6,24.3,16.5,0000.0,0016.33,0003.72,0002.68
2021-12-04 14:12:00,,0827.4,5.00,0.00,22.6,21.8,00.0,31.6,24.3,16.6,0000.0,0015.72,0003.68,0002.59
2021-12-04 14:13:00,,0827.3,4.99,0.00,22.6,21.8,00.0,31.6,24.2,16.6,0000.0,0015.52,0003.64,0002.52
2021-12-04 14:14:00,,0827.4,5.01,0.00,22.6,21.7,00.0,31.6,24.2,16.5,0000.0,0014.91,0003.62,0002.49
2021-12-04 14:15:00,,0827.4,5.00,0.00,22.6,21.7,00.0,31.6,24.3,16.5,0000.0,0014.40,0003.58,0002.43
2021-12-04 14:16:00,,0827.3,4.99,0.00,22.6,21.7,00.0,31.6,24.3,16.5,0000.0,0013.03,0003.49,0002.37
2021-12-04 14:17:00,,0827.3,5.01,0.00,22.6,21.7,00.0,31.6,24.2,16.5,0000.0,0011.98,0003.44,0002.32
2021-12-04 14:18:00,,0827.3,5.01,0.00,22.6,21.7,00.0,31.6,24.3,16.6,0000.0,0009.97,0003.42,0002.29
2021-12-04 14:19:00,,0827.2,4.99,0.00,22.6,21.8,00.0,31.6,24.3,16.6,0000.0,0008.84,0003.38,0002.27
2021-12-04 14:20:00,,0827.2,5.00,0.00,22.6,21.8,00.0,31.6,24.3,16.7,0000.0,0008.49,0003.40,0002.26
2021-12-04 14:21:00,,0827.2,5.00,0.00,22.5,21.7,00.0,31.6,24.2,16.8,0000.0,0008.96,0003.43,0002.25
2021-12-04 14:22:00,,0827.2,5.00,0.00,22.5,21.7,00.0,31.6,24.2,16.7,0000.0,0009.44,0003.46,0002.24
2021-12-04 14:23:00,,0827.2,5.01,0.00,22.5,21.7,00.0,31.6,24.2,16.7,0000.0,0010.73,0003.46,0002.23
2021-12-04 14:24:00,,0827.2,5.00,0.00,22.5,21.7,00.0,31.6,24.2,16.6,0000.0,0011.42,0003.46,0002.23
2021-12-04 14:25:00,,0827.2,5.00,0.00,22.5,21.7,00.0,31.6,24.2,16.6,0000.0,0012.28,0003.45,0002.23
2021-12-04 14:26:00,,0827.2,5.00,0.00,22.5,21.7,00.0,31.6,24.2,16.8,0000.0,0012.23,0003.44,0002.23
2021-12-04 14:27:00,,0827.2,5.00,0.00,22.6,21.7,00.0,31.6,24.3,16.8,0000.0,0012.59,0003.48,0002.23
2021-12-04 14:28:00,,0827.2,4.99,0.00,22.5,21.7,00.0,31.6,24.3,16.7,0000.0,0012.23,0003.49,0002.24
2021-12-04 14:29:00,,0827.2,5.01,0.00,22.5,21.7,00.0,31.6,24.3,16.6,0000.0,0012.15,0003.49,0002.25
2021-12-04 14:30:00,,0827.2,4.99,0.00,22.5,21.7,00.0,31.6,24.2,16.8,0000.0,0012.39,0003.50,0002.24
2021-12-04 14:31:00,,0827.2,5.01,0.00,22.5,21.7,00.0,31.6,24.3,16.9,0000.0,0012.78,0003.50,0002.26
2021-12-04 14:32:00,,0827.2,5.01,0.00,22.5,21.7,00.0,31.6,24.2,17.0,0000.0,0012.45,0003.53,0002.30
2021-12-04 14:33:00,,0827.1,4.98,0.00,22.5,21.7,00.0,31.5,24.3,16.9,0000.0,0012.08,0003.53,0002.32
2021-12-04 14:34:00,,0827.1,5.00,0.00,22.5,21.7,00.0,31.5,24.3,17.0,0000.0,0011.40,0003.57,0002.36
2021-12-04 14:35:00,,0827.1,5.01,0.00,22.5,21.7,00.0,31.5,24.3,17.0,0000.0,0010.46,0003.57,0002.41
2021-12-04 14:36:00,,0827.1,4.99,0.00,22.5,21.7,00.0,31.5,24.3,17.0,0000.0,0010.13,0003.63,0002.45
2021-12-04 14:37:00,,0827.2,5.01,0.00,22.5,21.8,00.0,31.5,24.3,17.0,0000.0,0010.17,0003.68,0002.49
2021-12-04 14:38:00,,0827.1,4.98,0.00,22.5,21.8,00.0,31.5,24.3,17.0,0000.0,0010.13,0003.71,0002.54
2021-12-04 14:39:00,,0827.1,5.00,0.00,22.5,21.8,00.0,31.5,24.3,17.1,0000.0,0010.63,0003.79,0002.60
2021-12-04 14:40:00,,0827.2,5.00,0.00,22.5,21.8,00.0,31.5,24.3,17.0,0000.0,0011.27,0003.85,0002.65
2021-12-04 14:41:00,,0827.2,5.00,0.00,22.5,21.8,00.0,31.5,24.3,16.9,0000.0,0011.25,0003.87,0002.68
2021-12-04 14:42:00,,0827.1,5.00,0.00,22.5,21.8,00.0,31.5,24.3,16.9,0000.0,0010.99,0003.86,0002.68
2021-12-04 14:43:00,,0827.0,5.00,0.00,22.6,21.8,00.0,31.5,24.3,16.9,0000.0,0011.78,0003.84,0002.70
2021-12-04 14:44:00,,0827.4,5.00,0.00,22.6,21.9,00.0,31.5,24.4,16.9,0000.0,0012.61,0003.89,0002.70
2021-12-04 14:45:00,,0827.2,4.99,0.00,22.6,21.9,00.0,31.5,24.4,16.9,0000.0,0012.76,0003.89,0002.69
2021-12-04 14:46:00,,0827.4,5.01,0.00,22.6,21.9,00.0,31.5,24.3,17.0,0000.0,0012.78,0003.88,0002.70
2021-12-04 14:47:00,,0827.1,5.00,0.00,22.6,21.9,00.0,31.5,24.3,17.1,0000.0,0012.38,0003.85,0002.71
2021-12-04 14:48:00,,0827.1,4.99,0.00,22.6,21.9,00.0,31.5,24.3,17.0,0000.0,0012.81,0003.82,0002.71
2021-12-04 14:49:00,,0827.1,5.01,0.00,22.5,21.9,00.0,31.5,24.3,16.9,0000.0,0013.21,0003.82,0002.70
2021-12-04 14:50:00,,0827.1,5.00,0.00,22.6,21.8,00.0,31.5,24.3,16.9,0000.0,0012.69,0003.76,0002.69
2021-12-04 14:51:00,,0827.0,4.99,0.00,22.6,21.9,00.0,31.5,24.3,16.9,0000.0,0011.98,0003.75,0002.66
2021-12-04 14:52:00,,0827.1,5.01,0.00,22.6,21.9,00.0,31.5,24.3,16.8,0000.0,0012.09,0003.74,0002.65
2021-12-04 14:53:00,,0827.1,5.01,0.00,22.6,21.9,00.0,31.5,24.3,16.8,0000.0,0012.39,0003.79,0002.65
2021-12-04 14:54:00,,0827.1,5.00,0.00,22.6,21.9,00.0,31.5,24.3,16.8,0000.0,0012.15,0003.84,0002.65
2021-12-04 14:55:00,,0827.2,5.00,0.00,22.6,21.9,00.0,31.5,24.3,16.8,0000.0,0011.19,0003.79,0002.65
2021-12-04 14:56:00,,0827.2,5.00,0.00,22.6,21.9,00.0,31.6,24.3,16.9,0000.0,0010.80,0003.77,0002.66
2021-12-04 14:57:00,,0827.2,5.00,0.00,22.6,21.9,00.0,31.6,24.3,16.9,0000.0,0010.90,0003.78,0002.65
2021-12-04 14:58:00,,0827.2,5.01,0.00,22.6,21.9,00.0,31.6,24.4,16.8,0000.0,0011.04,0003.81,0002.65
2021-12-04 14:59:00,,0827.2,4.99,0.00,22.6,21.9,00.0,31.6,24.4,16.8,0000.0,0010.81,0003.79,0002.65
